FW2321 Weather Reports


Display with metric or nautical units.
time (UTC)temp
F
wind
direction
speed
MPH
gust
MPH
rain 1hr
in
rain 24hr
in
rain mn
in
humidity
%
barometer
mb
20260904052537 71 45 2.0 5.0 0.00 0.78 0.00 100 1013.4
20260904052034 71 59 0.0 0.0 0.00 0.78 0.00 100 1013.5
20260904051556 71 0 0.0 0.0 0.00 0.78 0.00 100 1013.4
20260904051033 71 0 0.0 0.0 0.00 0.78 0.00 100 1013.1
20260904050533 71 0 0.0 0.0 0.00 0.78 0.00 100 1013.1
20260904050057 71 0 0.0 0.0 0.00 0.78 0.00 100 1013.3
20260904045534 71 0 0.0 0.0 0.00 0.78 0.78 100 1013.6
20260904045035 71 0 0.0 0.0 0.00 0.78 0.78 100 1013.7
20260904044557 71 0 0.0 0.0 0.00 0.78 0.78 100 1013.7
20260904044035 71 0 0.0 0.0 0.00 0.78 0.78 100 1013.7
20260904043534 71 0 0.0 0.0 0.00 0.78 0.78 100 1013.6
20260904043104 71 0 0.0 3.0 0.00 0.78 0.78 100 1013.5
20260904042533 71 0 0.0 3.0 0.00 0.78 0.78 100 1013.5
20260904042035 71 0 0.0 3.0 0.00 0.78 0.78 100 1013.5
20260904041556 71 0 0.0 0.0 0.00 0.78 0.78 99 1013.6
20260904041034 71 0 0.0 0.0 0.00 0.78 0.78 99 1013.6
20260904040537 70 0 0.0 0.0 0.00 0.78 0.78 99 1013.6
20260904040054 70 0 0.0 0.0 0.00 0.78 0.78 99 1013.5
20260904035534 71 0 0.0 0.0 0.00 0.78 0.78 99 1013.4
20260904035036 71 0 0.0 2.0 0.00 0.78 0.78 99 1013.3
20260904034552 71 0 0.0 2.0 0.00 0.78 0.78 99 1013.4
20260904034033 70 0 0.0 3.0 0.00 0.78 0.78 99 1013.5
20260904033538 70 0 0.0 3.0 0.00 0.78 0.78 99 1013.5
20260904033051 70 0 0.0 2.0 0.00 0.78 0.78 99 1013.6
20260904032537 70 0 0.0 2.0 0.00 0.78 0.78 99 1013.9
20260904032038 70 0 0.0 0.0 0.00 0.78 0.78 99 1014.0
20260904031555 70 0 0.0 0.0 0.00 0.78 0.78 98 1013.9
20260904031037 70 0 0.0 0.0 0.00 0.78 0.78 98 1014.0
20260904030534 71 0 0.0 0.0 0.00 0.78 0.78 98 1014.0
20260904030106 71 0 0.0 0.0 0.00 0.78 0.78 98 1014.0
20260904025534 71 0 0.0 1.0 0.00 0.78 0.78 98 1014.0
20260904025034 71 0 0.0 1.0 0.00 0.78 0.78 98 1014.0
20260904024553 71 0 0.0 3.0 0.00 0.78 0.78 98 1013.9
20260904024037 71 0 0.0 3.0 0.00 0.78 0.78 98 1013.8
20260904023536 71 0 0.0 2.0 0.00 0.78 0.78 98 1013.8
20260904023059 71 0 0.0 0.0 0.00 0.78 0.78 98 1013.8
20260904022535 71 0 0.0 0.0 0.00 0.78 0.78 98 1013.9
20260904022034 71 0 0.0 0.0 0.00 0.78 0.78 98 1013.8
20260904021557 71 0 0.0 1.0 0.00 0.78 0.78 97 1013.7
20260904021034 71 0 0.0 1.0 0.00 0.78 0.78 97 1013.7
20260904020534 71 0 0.0 0.0 0.00 0.78 0.78 97 1013.7
20260904020052 71 0 0.0 0.0 0.00 0.78 0.78 97 1013.7
20260904015536 71 0 0.0 0.0 0.00 0.78 0.78 97 1013.7
20260904015036 71 0 0.0 0.0 0.00 0.78 0.78 96 1013.6
20260904014615 71 0 0.0 0.0 0.00 0.78 0.78 96 1013.7
20260904014036 72 0 0.0 0.0 0.00 0.78 0.78 96 1013.7
20260904013533 72 0 0.0 0.0 0.00 0.78 0.78 96 1013.7
20260904013107 72 0 0.0 0.0 0.00 0.78 0.78 96 1013.5
20260904012534 72 0 0.0 0.0 0.00 0.78 0.78 95 1013.5
20260904012034 72 0 0.0 0.0 0.00 0.78 0.78 95 1013.2
20260904011601 73 0 0.0 0.0 0.00 0.78 0.78 95 1013.1
20260904011040 73 0 0.0 0.0 0.00 0.78 0.78 95 1013.1
20260904010533 73 0 0.0 0.0 0.00 0.78 0.78 94 1013.0
20260904010101 73 0 0.0 0.0 0.00 0.78 0.78 94 1013.1
20260904005535 73 0 0.0 1.0 0.00 0.78 0.78 94 1013.0
20260904005035 73 0 0.0 1.0 0.00 0.78 0.78 93 1012.9
20260904004555 74 0 0.0 1.0 0.00 0.78 0.78 93 1012.9
20260904004034 74 0 0.0 2.0 0.00 0.78 0.78 93 1012.7
20260904003533 74 0 0.0 3.0 0.00 0.78 0.78 92 1012.9
20260904003054 74 0 0.0 4.0 0.00 0.78 0.78 92 1012.9
20260904002534 75 61 1.0 4.0 0.00 0.78 0.78 92 1013.0
20260904002034 75 81 0.0 4.0 0.00 0.78 0.78 91 1012.9
20260904001549 75 0 0.0 2.0 0.00 0.78 0.78 91 1012.8
20260904001036 76 0 0.0 3.0 0.00 0.78 0.78 91 1012.8
20260904000540 76 0 0.0 4.0 0.00 0.78 0.78 91 1012.9
20260904000051 76 0 1.0 6.0 0.00 0.78 0.78 90 1012.8
20260903235535 76 0 1.0 6.0 0.00 0.78 0.78 90 1012.5
20260903235034 76 112 0.0 4.0 0.00 0.78 0.78 91 1012.6
20260903234556 77 61 0.0 4.0 0.00 0.78 0.78 91 1012.8
20260903234035 77 0 0.0 6.0 0.00 0.78 0.78 90 1012.6
20260903233534 77 0 0.0 6.0 0.00 0.78 0.78 90 1012.7
20260903233054 78 83 0.0 6.0 0.00 0.78 0.78 91 1012.6
20260903232535 78 90 0.0 8.0 0.00 0.78 0.78 90 1012.7
20260903232035 79 0 1.0 8.0 0.00 0.78 0.78 89 1012.5
20260903231600 80 80 3.0 8.0 0.00 0.78 0.78 89 1012.4
20260903231036 81 74 2.0 10.0 0.00 0.78 0.78 88 1012.4
20260903230538 81 96 3.0 10.0 0.00 0.78 0.78 88 1012.2
20260903230100 82 111 1.0 7.0 0.00 0.78 0.78 89 1012.2
20260903225534 82 113 1.0 4.0 0.00 0.78 0.78 88 1012.3
20260903225035 83 110 1.0 4.0 0.00 0.78 0.78 87 1012.3
20260903224554 83 0 0.0 0.0 0.00 0.78 0.78 87 1012.4
20260903224034 83 0 0.0 0.0 0.00 0.78 0.78 87 1012.4
20260903223532 83 0 0.0 0.0 0.00 0.78 0.78 87 1012.5
20260903223050 83 0 0.0 0.0 0.00 0.78 0.78 86 1012.7
20260903222537 83 0 0.0 0.0 0.00 0.78 0.78 86 1012.8
20260903222034 83 0 0.0 0.0 0.00 0.78 0.78 87 1012.5
20260903221558 83 0 0.0 0.0 0.00 0.78 0.78 86 1012.4
20260903221033 83 0 0.0 0.0 0.00 0.78 0.78 86 1012.3
20260903220533 83 0 0.0 0.0 0.00 0.78 0.78 86 1012.3
20260903220117 83 0 0.0 0.0 0.00 0.78 0.78 86 1012.4
20260903215537 83 0 0.0 0.0 0.00 0.78 0.78 84 1012.5
20260903215036 83 0 0.0 2.0 0.00 0.78 0.78 85 1012.5
20260903214552 83 0 0.0 3.0 0.00 0.78 0.78 84 1012.5
20260903214034 83 0 0.0 3.0 0.00 0.78 0.78 84 1012.7
20260903213533 83 205 2.0 3.0 0.00 0.78 0.78 84 1012.8
20260903213050 83 0 0.0 4.0 0.00 0.78 0.78 85 1012.7
20260903212534 83 205 0.0 4.0 0.00 0.78 0.78 86 1012.5
20260903212034 83 207 2.0 5.0 0.00 0.78 0.78 84 1012.6
20260903211603 83 0 0.0 5.0 0.00 0.78 0.78 84 1012.5
20260903211033 83 207 2.0 6.0 0.00 0.78 0.78 82 1012.4
20260903210534 83 209 3.0 6.0 0.00 0.78 0.78 81 1012.4
20260903210105 83 187 3.0 8.0 0.00 0.78 0.78 82 1012.5
20260903205534 83 183 2.0 8.0 0.00 0.78 0.78 83 1012.5
20260903205035 83 174 4.0 8.0 0.00 0.78 0.78 82 1012.5
20260903204553 83 205 2.0 8.0 0.00 0.78 0.78 83 1012.5
20260903204037 83 170 2.0 8.0 0.00 0.78 0.78 84 1012.4
20260903203538 83 161 3.0 8.0 0.00 0.78 0.78 83 1012.4
20260903203049 83 193 3.0 8.0 0.00 0.78 0.78 84 1012.5
20260903202534 82 217 2.0 7.0 0.00 0.78 0.78 86 1012.5
20260903202034 82 209 3.0 7.0 0.00 0.78 0.78 87 1012.6
20260903201558 81 222 2.0 6.0 0.00 0.78 0.78 87 1012.4
20260903201033 81 204 1.0 4.0 0.00 0.78 0.78 88 1012.5
20260903200536 80 198 2.0 6.0 0.00 0.78 0.78 88 1012.5
20260903200055 80 204 2.0 6.0 0.00 0.78 0.78 88 1012.5
20260903195533 80 200 2.0 5.0 0.00 0.78 0.78 90 1012.6
20260903195034 80 205 1.0 9.0 0.00 0.78 0.78 89 1012.6
20260903194553 80 199 2.0 9.0 0.00 0.78 0.78 89 1012.6
20260903194039 80 206 4.0 8.0 0.00 0.78 0.78 88 1012.7
20260903193536 80 192 2.0 7.0 0.00 0.78 0.78 88 1012.8
20260903193058 80 209 2.0 7.0 0.00 0.78 0.78 89 1013.0
20260903192533 80 209 3.0 7.0 0.00 0.78 0.78 88 1013.0
20260903192037 80 179 1.0 5.0 0.00 0.78 0.78 90 1013.2
20260903191558 80 176 2.0 5.0 0.00 0.78 0.78 92 1013.2
20260903191035 79 217 2.0 4.0 0.00 0.78 0.78 94 1013.3
20260903190534 79 234 0.0 4.0 0.00 0.78 0.78 93 1013.1
20260903190054 79 0 0.0 4.0 0.00 0.78 0.78 93 1013.2
20260903185534 79 237 1.0 4.0 0.00 0.78 0.78 93 1013.4
20260903185036 78 269 2.0 4.0 0.00 0.78 0.78 94 1013.7
20260903184558 77 0 0.0 4.0 0.00 0.78 0.78 92 1013.8
20260903184034 77 218 1.0 4.0 0.00 0.78 0.78 96 1013.5
20260903183535 77 220 0.0 4.0 0.00 0.78 0.78 99 1013.4
20260903183059 76 223 1.0 4.0 0.00 0.78 0.78 99 1013.5
20260903182539 76 226 0.0 4.0 0.00 0.78 0.78 100 1013.7
20260903182037 76 0 0.0 4.0 0.00 0.78 0.78 100 1013.7
20260903181604 75 342 1.0 4.0 0.00 0.78 0.78 100 1014.0
20260903181036 75 14 2.0 4.0 0.00 0.78 0.78 100 1014.1
20260903180534 74 232 2.0 4.0 0.00 0.78 0.78 100 1014.0
20260903180100 73 0 0.0 3.0 0.00 0.78 0.78 100 1013.8
20260903175533 73 0 0.0 3.0 0.00 0.78 0.78 100 1014.1
20260903175034 73 16 0.0 2.0 0.00 0.78 0.78 100 1013.9
20260903174554 73 0 0.0 2.0 0.01 0.78 0.78 100 1014.4
20260903174037 72 0 0.0 4.0 0.01 0.78 0.78 100 1014.0
20260903173534 72 0 1.0 5.0 0.02 0.78 0.78 100 1014.1
20260903173053 72 17 1.0 5.0 0.09 0.78 0.78 100 1013.9
20260903172534 72 62 2.0 8.0 0.09 0.78 0.78 100 1013.5
20260903172034 73 96 1.0 8.0 0.10 0.78 0.78 100 1013.3
20260903171614 73 86 1.0 8.0 0.11 0.78 0.78 100 1013.2
20260903171034 73 126 2.0 8.0 0.15 0.78 0.78 100 1013.0
20260903170537 73 74 1.0 9.0 0.16 0.78 0.78 100 1013.1
20260903170057 71 113 2.0 9.0 0.17 0.78 0.78 100 1013.2
20260903165534 71 117 3.0 7.0 0.17 0.78 0.78 100 1013.2
20260903165034 70 0 0.0 6.0 0.17 0.78 0.78 100 1013.5
20260903164602 70 83 1.0 6.0 0.16 0.77 0.77 100 1014.8
20260903164034 70 182 1.0 6.0 0.17 0.77 0.77 100 1015.3
20260903163534 70 0 0.0 1.0 0.20 0.75 0.75 100 1015.1
20260903163053 70 0 0.0 0.0 0.48 0.69 0.69 100 1016.0
20260903162538 70 0 0.0 0.0 0.52 0.69 0.69 100 1016.4
20260903162034 70 0 0.0 2.0 0.52 0.68 0.68 100 1016.3
20260903161559 70 0 0.0 10.0 0.52 0.66 0.66 100 1016.6
20260903161034 70 0 0.0 10.0 0.52 0.63 0.63 100 1016.9
20260903160534 70 203 6.0 10.0 0.54 0.62 0.62 99 1017.4
20260903160057 70 197 4.0 7.0 0.56 0.61 0.61 99 1016.9
20260903155539 70 0 0.0 0.0 0.61 0.62 0.61 99 1016.6
20260903155033 70 0 0.0 8.0 0.61 0.62 0.61 98 1016.3
20260903154553 70 0 0.0 9.0 0.61 0.62 0.61 98 1016.1
20260903154034 70 30 3.0 9.0 0.60 0.61 0.60 98 1015.8
20260903153536 70 24 5.0 11.0 0.52 0.54 0.52 97 1015.7
20260903153054 70 321 4.0 11.0 0.20 0.21 0.20 97 1016.6
20260903152535 70 9 3.0 7.0 0.17 0.18 0.17 96 1016.0
20260903152035 71 17 3.0 7.0 0.15 0.16 0.15 95 1015.4
20260903151554 71 30 3.0 7.0 0.13 0.14 0.13 94 1015.5
20260903151033 71 28 1.0 5.0 0.11 0.12 0.11 92 1015.8
20260903150534 72 0 0.0 6.0 0.07 0.08 0.07 91 1015.9
20260903150051 73 5 2.0 6.0 0.04 0.05 0.04 90 1015.6
20260903145534 73 25 2.0 6.0 0.00 0.01 0.00 89 1015.4
20260903145034 73 350 2.0 9.0 0.00 0.01 0.00 88 1015.1
20260903144559 73 46 3.0 9.0 0.00 0.01 0.00 88 1015.0
20260903144034 73 27 3.0 9.0 0.00 0.01 0.00 87 1015.0
20260903143533 73 49 4.0 9.0 0.00 0.01 0.00 87 1015.0
20260903143108 74 47 4.0 9.0 0.00 0.01 0.00 86 1015.1
20260903142534 74 25 3.0 9.0 0.00 0.01 0.00 86 1015.0
20260903142034 74 34 5.0 14.0 0.00 0.01 0.00 85 1015.2
20260903141553 75 59 3.0 14.0 0.00 0.01 0.00 86 1014.7
20260903141036 75 36 5.0 14.0 0.00 0.01 0.00 87 1014.7
20260903140536 75 54 5.0 11.0 0.00 0.01 0.00 91 1014.6
20260903140056 75 25 5.0 11.0 0.00 0.01 0.00 96 1014.7
20260903135533 76 30 4.0 11.0 0.00 0.01 0.00 99 1014.8
20260903135035 76 53 5.0 13.0 0.00 0.01 0.00 100 1014.6
20260903134552 75 36 4.0 13.0 0.00 0.01 0.00 100 1014.5
20260903134033 75 0 5.0 11.0 0.00 0.01 0.00 100 1014.5
20260903133535 75 5 5.0 13.0 0.00 0.01 0.00 100 1014.4
20260903133058 75 23 4.0 13.0 0.00 0.01 0.00 100 1014.1
20260903132534 75 22 5.0 8.0 0.00 0.01 0.00 100 1014.1
20260903132034 75 350 1.0 3.0 0.00 0.01 0.00 100 1013.5
20260903131608 75 0 0.0 2.0 0.00 0.01 0.00 100 1012.9
20260903131033 75 0 0.0 2.0 0.00 0.01 0.00 100 1012.8
20260903130535 75 265 0.0 3.0 0.00 0.01 0.00 100 1012.8
20260903130112 75 265 0.0 3.0 0.00 0.01 0.00 100 1012.6
20260903125534 75 0 0.0 2.0 0.00 0.01 0.00 100 1012.5
20260903125034 74 0 0.0 1.0 0.00 0.01 0.00 100 1012.5
20260903124549 74 0 0.0 1.0 0.00 0.01 0.00 100 1012.4
20260903124034 73 0 0.0 0.0 0.00 0.01 0.00 100 1012.5
20260903123535 73 0 0.0 0.0 0.00 0.01 0.00 100 1012.5
20260903123057 72 0 0.0 0.0 0.00 0.01 0.00 100 1012.4
20260903122534 72 0 0.0 0.0 0.00 0.01 0.00 100 1012.4
20260903122034 71 0 0.0 0.0 0.00 0.01 0.00 100 1012.6
20260903121555 71 0 0.0 0.0 0.00 0.01 0.00 100 1012.6
20260903121035 71 0 0.0 0.0 0.00 0.01 0.00 100 1012.5
20260903120538 70 0 0.0 0.0 0.00 0.01 0.00 100 1012.6
20260903120052 70 0 0.0 0.0 0.00 0.01 0.00 100 1012.7
20260903115534 70 0 0.0 0.0 0.00 0.01 0.00 100 1012.6
20260903115035 70 0 0.0 0.0 0.00 0.01 0.00 100 1012.8
20260903114603 70 0 0.0 0.0 0.00 0.01 0.00 100 1012.6
20260903114034 70 0 0.0 0.0 0.00 0.01 0.00 100 1012.6
20260903113536 70 0 0.0 0.0 0.00 0.01 0.00 100 1012.6
20260903113056 70 0 0.0 0.0 0.00 0.01 0.00 100 1012.7
20260903112534 70 0 0.0 0.0 0.00 0.01 0.00 100 1012.6
20260903112034 70 0 0.0 0.0 0.00 0.01 0.00 100 1012.7
20260903111603 70 0 0.0 0.0 0.00 0.01 0.00 100 1012.6
20260903111035 70 0 0.0 0.0 0.00 0.01 0.00 100 1012.7
20260903110534 70 0 0.0 0.0 0.00 0.01 0.00 100 1012.7
20260903110104 70 0 0.0 0.0 0.00 0.01 0.00 100 1012.7
20260903105534 70 0 0.0 0.0 0.00 0.01 0.00 100 1012.6
20260903105034 70 0 0.0 0.0 0.00 0.01 0.00 100 1012.6
20260903104603 70 0 0.0 0.0 0.00 0.01 0.00 100 1012.7
20260903104033 70 0 0.0 0.0 0.00 0.01 0.00 100 1012.6
20260903103534 70 0 0.0 0.0 0.00 0.01 0.00 100 1012.5
20260903103059 70 0 0.0 0.0 0.00 0.01 0.00 100 1012.5
20260903102537 70 0 0.0 0.0 0.00 0.01 0.00 100 1012.5
20260903102035 70 0 0.0 0.0 0.00 0.01 0.00 100 1012.6
20260903101557 70 0 0.0 0.0 0.00 0.01 0.00 100 1012.5
20260903101034 71 0 0.0 0.0 0.00 0.01 0.00 100 1012.5
20260903100535 71 0 0.0 0.0 0.00 0.01 0.00 100 1012.5
20260903100054 71 0 0.0 0.0 0.00 0.01 0.00 100 1012.5
20260903095534 71 0 0.0 0.0 0.00 0.01 0.00 100 1012.6
20260903095034 71 0 0.0 0.0 0.00 0.01 0.00 100 1012.5
20260903094606 71 0 0.0 0.0 0.00 0.01 0.00 100 1012.8
20260903094034 71 0 0.0 0.0 0.00 0.01 0.00 100 1012.7
20260903093533 71 0 0.0 0.0 0.00 0.01 0.00 100 1012.8
20260903093107 71 0 0.0 0.0 0.00 0.01 0.00 100 1012.7
20260903092538 71 0 0.0 0.0 0.00 0.01 0.00 100 1012.7
20260903092034 71 0 0.0 0.0 0.00 0.01 0.00 100 1012.8
20260903091554 71 0 0.0 0.0 0.00 0.01 0.00 100 1012.7
20260903091034 71 0 0.0 0.0 0.00 0.01 0.00 100 1012.7
20260903090534 71 0 0.0 0.0 0.00 0.01 0.00 100 1012.6
20260903090100 71 0 0.0 0.0 0.00 0.01 0.00 100 1012.5
20260903085534 71 0 0.0 0.0 0.00 0.01 0.00 100 1012.6
20260903085034 71 0 0.0 0.0 0.00 0.01 0.00 100 1012.5
20260903084557 71 0 0.0 0.0 0.00 0.01 0.00 100 1012.5
20260903084034 71 0 0.0 0.0 0.00 0.01 0.00 100 1012.5
20260903083533 71 0 0.0 0.0 0.00 0.01 0.00 100 1012.5
20260903083056 72 0 0.0 0.0 0.00 0.01 0.00 100 1012.6
20260903082538 72 0 0.0 0.0 0.00 0.01 0.00 100 1012.5
20260903082036 71 0 0.0 0.0 0.00 0.01 0.00 100 1012.7
20260903081553 71 0 0.0 0.0 0.00 0.01 0.00 100 1012.7
20260903081034 72 0 0.0 0.0 0.00 0.01 0.00 100 1012.6
20260903080536 72 0 0.0 0.0 0.00 0.01 0.00 100 1012.6
20260903080055 72 0 0.0 0.0 0.00 0.01 0.00 100 1012.5
20260903075534 72 0 0.0 0.0 0.00 0.01 0.00 100 1012.5
20260903075034 72 0 0.0 0.0 0.00 0.01 0.00 100 1012.7
20260903074556 72 0 0.0 0.0 0.00 0.01 0.00 100 1012.6
20260903074035 72 0 0.0 0.0 0.00 0.01 0.00 100 1012.5
20260903073534 72 0 0.0 0.0 0.00 0.01 0.00 100 1012.5
20260903073055 72 0 0.0 0.0 0.00 0.01 0.00 100 1012.5
20260903072534 72 0 0.0 0.0 0.00 0.01 0.00 100 1012.5
20260903072035 72 0 0.0 0.0 0.00 0.01 0.00 100 1012.5
20260903071555 72 0 0.0 0.0 0.00 0.01 0.00 100 1012.5
20260903071034 72 0 0.0 0.0 0.00 0.01 0.00 100 1012.5
20260903070534 72 0 0.0 0.0 0.00 0.01 0.00 100 1012.5
20260903070052 72 0 0.0 0.0 0.00 0.01 0.00 100 1012.6
20260903065535 72 0 0.0 0.0 0.00 0.01 0.00 100 1012.7
20260903065034 72 0 0.0 0.0 0.00 0.01 0.00 100 1012.7
20260903064555 72 0 0.0 0.0 0.00 0.01 0.00 100 1012.7
20260903064034 72 0 0.0 0.0 0.00 0.01 0.00 100 1012.7
20260903063534 72 0 0.0 0.0 0.00 0.01 0.00 100 1012.8
20260903063055 72 0 0.0 0.0 0.00 0.01 0.00 100 1012.8
20260903062536 72 0 0.0 0.0 0.00 0.01 0.00 100 1013.0
20260903062034 72 0 0.0 0.0 0.00 0.01 0.00 100 1013.1
20260903061559 72 0 0.0 0.0 0.00 0.01 0.00 100 1012.9
20260903061034 72 0 0.0 0.0 0.00 0.01 0.00 100 1012.9
20260903060534 72 0 0.0 0.0 0.00 0.01 0.00 100 1012.9
20260903060100 72 0 0.0 0.0 0.00 0.01 0.00 100 1013.0
20260903055535 72 0 0.0 0.0 0.00 0.01 0.00 100 1012.9
20260903055037 72 0 0.0 0.0 0.00 0.01 0.00 100 1013.0
20260903054557 72 0 0.0 0.0 0.00 0.01 0.00 100 1012.8
20260903054036 72 0 0.0 0.0 0.00 0.01 0.00 100 1012.8
20260903053536 72 0 0.0 0.0 0.00 0.01 0.00 100 1012.9
20260903053054 72 0 0.0 0.0 0.00 0.01 0.00 100 1012.9